Regional Weather Roundup
Issued by NWS

Home | Current Version | Previous Version | Graphics & Text | Print | Product List | Glossary On
Versions: 1 2 3 4 5 6 7 8 9 10 11 12 13 14 15 16 17 18 19 20 21 22 23 24 25 26 27 28 29 30 31 32 33 34 35 36 37 38 39 40 41 42 43 44 45 46 47 48 49 50
000
ASUS45 KBOI 270110
RWRID

IDAHO REGIONAL WEATHER ROUNDUP
NATIONAL WEATHER SERVICE BOISE ID
700 PM MDT MON SEP 26 2016

NOTE: "FAIR" INDICATES FEW OR NO CLOUDS BELOW 12000 FEET
WITH NO SIGNIFICANT WEATHER AND/OR OBSTRUCTIONS TO VISIBILITY

IDZ012-014-270200-
SOUTHWEST IDAHO


CITY           SKY/WX    TMP DP  RH WIND       PRES   REMARKS
BOISE          FAIR      82  39  21 S5        30.13F
CALDWELL       FAIR      80  41  24 SW6       30.12F
MOUNTAIN HOME  CLEAR     80  44  27 SE8       30.14F
$$

IDZ016-017-270200-
SOUTHCENTRAL IDAHO


CITY           SKY/WX    TMP DP  RH WIND       PRES   REMARKS
BURLEY         MOCLDY    70  45  40 NE7       30.23F
JEROME         MOCLDY    73  47  39 NE6       30.23F
TWIN FALLS     MOCLDY    69  52  54 E7        30.23F
$$

IDZ019>023-270200-
SOUTHEAST IDAHO


CITY           SKY/WX    TMP DP  RH WIND       PRES   REMARKS
IDAHO FALLS    CLOUDY    66  45  46 CALM      30.29F
POCATELLO      CLOUDY    68  49  50 NW5       30.28F
REXBURG        CLOUDY    68  40  35 CALM      30.30F
$$

IDZ006-010-011-018-031-032-270200-
CENTRAL IDAHO MOUNTAINS


CITY           SKY/WX    TMP DP  RH WIND       PRES   REMARKS
MCCALL         CLEAR     72  37  28 NW5       30.27F
HAILEY         PTCLDY    63  52  67 SE6       30.33F
STANLEY          N/A     67  35  30 VRB3      30.34F
SALMON         CLEAR     70  50  49 CALM      30.18F
CHALLIS        CLEAR     69  38  32 W5        30.24F
$$

IDZ002-004-006-007-026-270200-
NORTHERN IDAHO


CITY           SKY/WX    TMP DP  RH WIND       PRES   REMARKS
LEWISTON       CLEAR     87  45  23 CALM      29.99F
LOWELL           N/A     65  57  75 N5        30.05F
COEUR D`ALENE  NOT AVBL
MULLAN PASS    CLEAR     63  39  41 VRB3      30.29F
$$



USA.gov is the U.S. government's official web portal to all federal, state and local government web resources and services.